Weather History for Yuma MCAS, AZ

Change the Weather History Date:

Saturday, January 19, 2013

  Actual Average Record
Temperature  
Mean Temperature 62 °F 59 °F  
Max Temperature 74 °F 70 °F 88 °F (1971)
Min Temperature 50 °F 48 °F 31 °F (1949)
Degree Days  
Heating Degree Days 3 6  
Month to date heating degree days 230 134  
Since 1 July heating degree days 467 438  
Cooling Degree Days 0 0  
Month to date cooling degree days 0 0  
Year to date cooling degree days 0 0  
Growing Degree Days 12 (Base 50)    
Moisture  
Dew Point 17 °F    
Average Humidity 19    
Maximum Humidity 26    
Minimum Humidity 12    
Precipitation  
Precipitation 0.00 in 0.01 in 0.38 in (2010)
Month to date precipitation 0.00 0.25  
Year to date precipitation 0.00 0.25  
Sea Level Pressure  
Sea Level Pressure 30.15 in    
Wind  
Wind Speed 9 mph (North)    
Max Wind Speed 17 mph    
Max Gust Speed 22 mph    
Visibility 10 miles    
Events      
T = Trace of Precipitation, MM = Missing Value Source: NWS Daily Summary

Daily Weather History Graph

Daily Weather History Graph

Search for Another Location

Airport:

Trip Planner

Search our weather history database for the weather conditions in past years. The results will help you decide how hot, cold, wet, or windy it might be!

Date:

Astronomy

Jan. 19, 2013 Rise Set
Actual Time 7:39 AM MST 5:59 PM MST
Civil Twilight 7:13 AM MST 6:25 PM MST
Nautical Twilight 6:43 AM MST 6:55 PM MST
Astronomical Twilight 6:13 AM MST 7:25 PM MST
Moon 12:24 PM MST (1/19) 1:22 AM MST (1/19)
Length of Visible Light 11h 12m
Length of Day
10h 19m
First Quarter, 58% of the Moon is Illuminated
Jan 19
First Quarter
Jan 26
Full
Feb 3
Last Quarter
Feb 10
New
Feb 17
First Quarter

Hourly Weather History & Observations

Time (MST) Temp. Dew Point Humidity Pressure Visibility Wind Dir Wind Speed Gust Speed Precip Events Conditions
12:55 AM 57.9 °F 16.0 °F 19% 30.12 in 10.0 mi North 9.2 mph - N/A   Partly Cloudy
1:55 AM 55.9 °F 16.0 °F 21% 30.13 in 10.0 mi North 8.1 mph - N/A   Partly Cloudy
2:55 AM 57.9 °F 16.0 °F 19% 30.13 in 10.0 mi North 9.2 mph - N/A   Partly Cloudy
3:55 AM 57.0 °F 15.1 °F 19% 30.13 in 10.0 mi North 9.2 mph - N/A   Partly Cloudy
4:55 AM 55.9 °F 16.0 °F 21% 30.14 in 10.0 mi North 10.4 mph - N/A   Partly Cloudy
5:55 AM 55.0 °F 16.0 °F 22% 30.15 in 10.0 mi North 8.1 mph - N/A   Partly Cloudy
6:55 AM 52.0 °F 17.1 °F 25% 30.17 in 10.0 mi East 3.5 mph - N/A   Partly Cloudy
7:55 AM 52.0 °F 17.1 °F 25% 30.19 in 10.0 mi North 6.9 mph - N/A   Partly Cloudy
8:55 AM 57.9 °F 16.0 °F 19% 30.21 in 10.0 mi North 11.5 mph - N/A   Partly Cloudy
9:55 AM 62.1 °F 18.0 °F 18% 30.23 in 10.0 mi North 8.1 mph - N/A   Partly Cloudy
10:55 AM 66.0 °F 17.1 °F 15% 30.24 in 10.0 mi North 13.8 mph - N/A   Partly Cloudy
11:55 AM 69.1 °F 16.0 °F 13% 30.21 in 10.0 mi North 11.5 mph - N/A   Partly Cloudy
12:00 PM - - N/A% - - North - - N/A   Unknown
12:55 PM 71.1 °F 17.1 °F 13% 30.17 in 10.0 mi North 11.5 mph - N/A   Partly Cloudy
1:55 PM 72.0 °F 18.0 °F 13% 30.14 in 10.0 mi North 12.7 mph - N/A   Partly Cloudy
2:55 PM 73.0 °F 18.0 °F 12% 30.13 in 10.0 mi North 12.7 mph - N/A   Partly Cloudy
3:55 PM 73.0 °F 18.0 °F 12% 30.13 in 10.0 mi North 10.4 mph - N/A   Partly Cloudy
4:55 PM 71.1 °F 17.1 °F 13% 30.12 in 10.0 mi North 10.4 mph - N/A   Partly Cloudy
5:55 PM 68.0 °F 18.0 °F 15% 30.12 in 10.0 mi North 6.9 mph - N/A   Partly Cloudy
6:55 PM 64.9 °F 17.1 °F 16% 30.12 in 10.0 mi North 6.9 mph - N/A   Partly Cloudy
7:55 PM 63.0 °F 17.1 °F 17% 30.14 in 10.0 mi North 5.8 mph - N/A   Partly Cloudy
8:55 PM 61.0 °F 17.1 °F 18% 30.14 in 10.0 mi North 6.9 mph - N/A   Partly Cloudy
9:55 PM 59.0 °F 18.0 °F 20% 30.14 in 10.0 mi North 5.8 mph - N/A   Clear
10:55 PM 59.0 °F 17.1 °F 20% 30.14 in 10.0 mi North 6.9 mph - N/A   Clear
11:55 PM 57.0 °F 16.0 °F 20% 30.14 in 10.0 mi NW 5.8 mph - N/A   Clear